NOAA NWS Hourly Roundups by Site

Regional Weather Roundup for Bismarck, ND

To Select Another Site Choose from List

Select Site:  

512
ASUS43 KBIS 160110
RWRBIS

NWR BROADCAST TEXT
NATIONAL WEATHER SERVICE BISMARCK ND
800 PM CDT TUE OCT 15 2019

NOTE: "FAIR" INDICATES FEW OR NO CLOUDS BELOW 12,000 FEET WITH NO
SIGNIFICANT WEATHER AND/OR OBSTRUCTIONS TO VISIBILITY.


CITY           SKY/WX    TMP DP  RH WIND       PRES   REMARKS
WILLISTON      PTCLDY    37  28  70 E7        30.19F
MINOT          CLOUDY    39  32  76 W6        30.20S
MINOT AFB      CLOUDY    38  32  79 W6        30.19S
BISMARCK       CLOUDY    40  32  73 NW8       30.24R
DICKINSON      PTCLDY    35  28  75 CALM      30.20F
GARRISON         N/A     36  31  82 CALM      30.21F
HETTINGER ARPT CLOUDY    39  33  79 NW3       30.22S
JAMESTOWN      CLOUDY    37  35  92 NW12      30.17S
CARRINGTON     CLOUDY    36  34  93 NW10      30.21R
HAZEN          CLOUDY    41  36  81 NW3       30.24S
MANDAN         CLOUDY    39  36  87 NW6       30.23R
OAKES          CLOUDY    39  37  93 NW9       30.18R
RUGBY          CLOUDY    37  36  93 NW7       30.19R
STANLEY        CLOUDY    34  30  86 NW6       30.21R
TIOGA          CLOUDY    34  32  93 CALM      30.22S
WATFORD CITY   MOCLDY    37  32  81 CALM      30.20F
$$

CITY           SKY/WX    TMP DP  RH WIND       PRES   REMARKS
GRAND FORKS    CLOUDY    38  33  82 N13       30.15R
GRAND FORKS AF CLOUDY    39  36  87 N14       30.16R
DEVILS LAKE    CLOUDY    36  32  87 W9        30.18R
FARGO          CLOUDY    40  35  83 NW15      30.14R
CANDO          CLOUDY    37  37 100 NW10      30.19S
CAVALIER       CLOUDY    36  34  93 NW9G17    30.16R
GRAFTON        CLOUDY    36  36 100 NW9       30.17R
GWINNER        CLOUDY    39  36  87 NW16      30.17R
LANGDON        CLOUDY    36  36 100 N12       30.15S
ROLLA          CLOUDY    36  32  87 NW8       30.18R
WALHALLA       CLOUDY    36  36 100 NW8       30.16S
$$

CITY           SKY/WX    TMP DP  RH WIND       PRES   REMARKS
ABERDEEN       CLOUDY    41  35  79 NW8       30.20R
MOBRIDGE       CLOUDY    44  35  70 N8        30.21R
BUFFALO          N/A     42  26  53 N5        30.19S
RAPID CITY     CLEAR     38  27  64 N5        30.23R
GLASGOW        MOCLDY    39  28  64 E10       30.13F
SIDNEY         MOCLDY    37  30  75 S5        30.20F
WOLF POINT     MOCLDY    38  28  67 CALM      30.17F
GLENDIVE       MOCLDY    39  27  62 CALM      30.19F
MILES CITY     MOCLDY    41  29  62 SE6       30.17F
BAKER          MOCLDY    34  27  75 CALM      30.20F
$$

CITY           SKY/WX    TMP DP  RH WIND       PRES   REMARKS
BILLINGS       CLOUDY    50  33  52 S8        30.11F
GREAT FALLS    CLOUDY    52  26  36 SW10      29.99F
REGINA         CLOUDY    36  28  75 VRB2      30.17S
ESTEVAN        CLOUDY    37  30  75 NW7       30.20S
$$




 

View Past Reports for Bismarck, ND.

Products Courtesy of NOAA-NWS
NWS Information Parsing Script by Ken True at Saratoga Weather - Script by SE Lincoln Weather.